Kodiak, AK

1:33 PM AKST en Diciembre 13, 2017 (GMT -0900)
Kodiak

Tiempo Historia de PADQ - Enero, 2012

Change the Weather History Date:

Domingo, Enero 1, 2012

  Actual Average Record
Temperature  
Temperatura media 21 ° F 31 ° F  
Temperatura máxima 28 ° F 36 ° F 46 ° F (1985)
Temperatura mínima 13 ° F 26 ° F -9 ° F (1917)
Degree Days  
Grados día de calefacción 44 34  
Month to date heating degree days 44 34  
Since 1 July heating degree days 4065 3877  
Cooling Degree Days 0 0  
Month to date cooling degree days 0 0  
Year to date cooling degree days 0 0  
Moisture  
Punto de rocío 7 ° F    
Average Humidity 0    
Maximum Humidity 0    
Minimum Humidity 0    
Precipitación  
Precipitación 0.00 pul 0.28 pul 1.25 pul (2008)
Month to date precipitation 0.00 0.28  
Year to date precipitation 0.00 0.28  
Nieve  
Nieve 0.00 pul 0.40 pul 3.80 pul (1967)
Month to date snowfall 0.0 0.4  
Since 1 July snowfall 36.5 21.7  
Grosos de nieve T pul    
Presión al nivel del mar  
Presión al nivel del mar 29.49 pul    
Viento  
Velocidad del viento 14 mph (ONO)    
Velocidad máxima del viento 32 mph    
Max Gust Speed 41 mph    
Visibilidad 10 Millas    
Eventos      
T = Trace of Precipitation, MM = Missing Value Source: NWS Daily Summary

Daily Weather History Graph

Daily Weather History Graph

Search for Another Location

Airport or City:

Trip Planner

Search our weather history database for the weather conditions in past years. The results will help you decide how hot, cold, wet, or windy it might be!

Date:

Astronomía

Jan. 01, 2012 Salida Puesta
Hora real 9:53 AM AKST 4:33 PM AKST
Crepúsculo civil 9:02 AM AKST 5:24 PM AKST
Crepúsculo náutico 8:11 AM AKST 6:15 PM AKST
Crepúsculo astronómico 7:23 AM AKST 7:03 PM AKST
Luna 12:14 PM AKST (1/1) 2:06 AM AKST (1/1)
Horas de luz 8h 21m
Horas de luz
6h 40m
Cuarto creciente, 56% of the Moon is Illuminated
Ene 1
Cuarto creciente
Ene 8
Luna llena
Ene 16
Cuarto menguante
Ene 22
Nueva
Ene 30
Cuarto creciente

Hourly Weather History & Observations

Hora (AKST) Temp. Vientos helados Punto de rocío Humedad Presión Visibilidad Wind Dir Velocidad del viento Velocidad de ráfagas Precip Eventos Condiciones
12:01 AM 15.8 ° F 5.1 ° F 5.0 ° F 62% 29.84 pul 10.0 mi NO 8.1 mph - N/A   Nublado
12:53 AM 15.1 ° F 3.3 ° F 5.0 ° F 64% 29.82 pul 10.0 mi NO 9.2 mph - N/A   Nublado
1:20 AM 15.8 ° F 3.4 ° F 5.0 ° F 62% 29.80 pul 10.0 mi ONO 10.4 mph 17.3 mph N/A   Nubes dispersas
1:53 AM 15.1 ° F 3.3 ° F 5.0 ° F 64% 29.80 pul 10.0 mi NO 9.2 mph - N/A   Nubes dispersas
3:53 AM 15.1 ° F 1.1 ° F 3.9 ° F 61% 29.73 pul 10.0 mi NO 12.7 mph - N/A   Despejado
4:53 AM 15.1 ° F 4.2 ° F 3.9 ° F 61% 29.70 pul 10.0 mi NO 8.1 mph - N/A   Despejado
5:53 AM 15.1 ° F 0.5 ° F 3.9 ° F 61% 29.67 pul 10.0 mi ONO 13.8 mph 20.7 mph N/A   Parcialmente nublado
6:16 AM 15.8 ° F 1.4 ° F 5.0 ° F 62% 29.65 pul 10.0 mi ONO 13.8 mph 21.9 mph N/A   Muy nublado
6:53 AM 16.0 ° F 3.6 ° F 5.0 ° F 62% 29.64 pul 10.0 mi ONO 10.4 mph 20.7 mph N/A   Nublado
7:35 AM 15.8 ° F -1.1 ° F 5.0 ° F 62% 29.61 pul 10.0 mi ONO 19.6 mph 24.2 mph N/A   Nubes dispersas
7:53 AM 16.0 ° F 0.6 ° F 5.0 ° F 62% 29.60 pul 10.0 mi ONO 16.1 mph 29.9 mph N/A   Parcialmente nublado
8:53 AM 16.0 ° F -0.4 ° F 5.0 ° F 62% 29.57 pul 10.0 mi ONO 18.4 mph 24.2 mph N/A   Parcialmente nublado
9:53 AM 16.0 ° F -2.5 ° F 6.1 ° F 65% 29.53 pul 10.0 mi ONO 24.2 mph 34.5 mph N/A   Parcialmente nublado
10:53 AM 17.1 ° F -2.0 ° F 6.1 ° F 62% 29.49 pul 10.0 mi ONO 27.6 mph 38.0 mph N/A   Nubes dispersas
11:53 AM 18.0 ° F -1.1 ° F 7.0 ° F 62% 29.46 pul 10.0 mi ONO 28.8 mph 36.8 mph N/A   Nubes dispersas
12:53 PM 18.0 ° F 0.2 ° F 7.0 ° F 62% 29.43 pul 10.0 mi ONO 24.2 mph 31.1 mph N/A   Nubes dispersas
1:53 PM 19.0 ° F 2.7 ° F 8.1 ° F 62% 29.40 pul 10.0 mi ONO 20.7 mph 27.6 mph N/A   Nubes dispersas
2:53 PM 18.0 ° F 2.2 ° F 8.1 ° F 65% 29.37 pul 10.0 mi ONO 18.4 mph 25.3 mph N/A   Nubes dispersas
3:53 PM 18.0 ° F 0.2 ° F 8.1 ° F 65% 29.34 pul 9.0 mi ONO 24.2 mph 31.1 mph N/A   Nubes dispersas
4:53 PM 18.0 ° F 3.1 ° F 8.1 ° F 65% 29.34 pul 10.0 mi Oeste 16.1 mph - N/A   Parcialmente nublado
5:53 PM 18.0 ° F 4.2 ° F 7.0 ° F 62% 29.30 pul 10.0 mi ONO 13.8 mph - N/A   Parcialmente nublado
6:53 PM 18.0 ° F 6.1 ° F 9.0 ° F 68% 29.28 pul 10.0 mi NO 10.4 mph 24.2 mph N/A   Parcialmente nublado
7:53 PM 18.0 ° F - 8.1 ° F 65% 29.27 pul 10.0 mi Sin viento Sin viento - N/A   Parcialmente nublado
8:53 PM 19.0 ° F 9.0 ° F 9.0 ° F 65% 29.25 pul 10.0 mi Norte 8.1 mph - N/A   Parcialmente nublado
9:53 PM 14.0 ° F - 6.1 ° F 71% 29.24 pul 10.0 mi Sin viento Sin viento - N/A   Parcialmente nublado
10:53 PM 18.0 ° F - 8.1 ° F 65% 29.24 pul 10.0 mi Sin viento Sin viento - N/A   Despejado
11:31 PM 26.6 ° F 14.7 ° F 10.4 ° F 51% 29.23 pul 10.0 mi Oeste 15.0 mph 26.5 mph N/A   Despejado
11:53 PM 25.0 ° F 14.8 ° F 10.0 ° F 53% 29.24 pul 10.0 mi OSO 10.4 mph - N/A   Despejado